Previsão horária em Almedijar

Hoje, 18 Janeiro, Segunda-feira

Tempo Temperatura Precipitação Vento Pressão Humidade
00:00 +6°C° 0 mm 2 m/s 723 mmHg 75%
01:00 +6°C° 0 mm 2 m/s 723 mmHg 76%
02:00 +6°C° 0 mm 2 m/s 723 mmHg 77%
03:00 +6°C° 0 mm 2 m/s 723 mmHg 78%
04:00 +5°C° 0 mm 2 m/s 723 mmHg 79%
05:00 +5°C° 0 mm 2 m/s 723 mmHg 80%
06:00 +5°C° 0 mm 1 m/s 723 mmHg 84%
07:00 +6°C° 0 mm 1 m/s 723 mmHg 80%
08:00 +7°C° 0 mm 1 m/s 724 mmHg 75%
09:00 +7°C° 0 mm 2 m/s 724 mmHg 71%
10:00 +10°C° 0 mm 1 m/s 724 mmHg 66%
11:00 +11°C° 0 mm 1 m/s 724 mmHg 61%
12:00 +13°C° 0 mm 1 m/s 724 mmHg 55%
13:00 +13°C° 0 mm 1 m/s 724 mmHg 55%
14:00 +13°C° 0 mm 2 m/s 723 mmHg 55%
15:00 +13°C° 0 mm 2 m/s 723 mmHg 54%
16:00 +11°C° 0 mm 1 m/s 723 mmHg 63%
17:00 +9°C° 0 mm 1 m/s 723 mmHg 72%
18:00 +7°C° 0 mm 1 m/s 723 mmHg 80%
19:00 +7°C° 0 mm 1 m/s 723 mmHg 78%
20:00 +6°C° 0 mm 1 m/s 723 mmHg 76%
21:00 +6°C° 0 mm 1 m/s 723 mmHg 74%
22:00 +5°C° 0 mm 2 m/s 723 mmHg 70%
23:00 +5°C° 0 mm 2 m/s 723 mmHg 66%

Amanhã, 19 Janeiro, Terça-feira

Tempo Temperatura Precipitação Vento Pressão Humidade
00:00 +4°C° 0 mm 2 m/s 723 mmHg 63%
01:00 +4°C° 0 mm 2 m/s 723 mmHg 61%
02:00 +4°C° 0 mm 2 m/s 723 mmHg 59%
03:00 +4°C° 0 mm 2 m/s 722 mmHg 57%
04:00 +4°C° 0 mm 2 m/s 722 mmHg 54%
05:00 +4°C° 0 mm 2 m/s 722 mmHg 52%
06:00 +4°C° 0 mm 2 m/s 722 mmHg 50%
07:00 +6°C° 0 mm 1 m/s 722 mmHg 47%
08:00 +8°C° 0 mm 1 m/s 722 mmHg 45%
09:00 +9°C° 0 mm 1 m/s 722 mmHg 43%
10:00 +11°C° 0 mm 1 m/s 722 mmHg 40%
11:00 +12°C° 0 mm 1 m/s 722 mmHg 37%
12:00 +14°C° 0 mm 1 m/s 722 mmHg 35%
13:00 +14°C° 0 mm 1 m/s 721 mmHg 37%
14:00 +14°C° 0 mm 2 m/s 720 mmHg 38%
15:00 +14°C° 0 mm 2 m/s 720 mmHg 40%
16:00 +12°C° 0 mm 1 m/s 719 mmHg 50%
17:00 +10°C° 0 mm 1 m/s 719 mmHg 59%
18:00 +7°C° 0 mm 1 m/s 719 mmHg 69%
19:00 +7°C° 0 mm 1 m/s 719 mmHg 67%
20:00 +7°C° 0 mm 1 m/s 719 mmHg 66%
21:00 +6°C° 0 mm 2 m/s 719 mmHg 64%
22:00 +6°C° 0 mm 2 m/s 718 mmHg 63%
23:00 +6°C° 0 mm 2 m/s 718 mmHg 62%

Depois de amanhã, 20 Janeiro, Quarta-feira

Tempo Temperatura Precipitação Vento Pressão Humidade
00:00 +6°C° 0 mm 2 m/s 718 mmHg 61%
01:00 +6°C° 0 mm 2 m/s 717 mmHg 61%
02:00 +6°C° 0 mm 2 m/s 717 mmHg 62%
03:00 +5°C° 0 mm 2 m/s 716 mmHg 62%
04:00 +5°C° 0 mm 2 m/s 716 mmHg 60%
05:00 +5°C° 0 mm 2 m/s 716 mmHg 59%
06:00 +5°C° 0 mm 2 m/s 715 mmHg 57%
07:00 +6°C° 0 mm 2 m/s 715 mmHg 57%
08:00 +7°C° 0 mm 2 m/s 715 mmHg 57%
09:00 +8°C° 0 mm 2 m/s 715 mmHg 57%
10:00 +8°C° 0 mm 4 m/s 715 mmHg 57%
11:00 +9°C° 0 mm 5 m/s 715 mmHg 56%
12:00 +10°C° 0 mm 7 m/s 714 mmHg 55%
13:00 +10°C° 0 mm 6 m/s 714 mmHg 57%
14:00 +10°C° 0 mm 6 m/s 713 mmHg 60%
15:00 +10°C° 0 mm 6 m/s 712 mmHg 62%
16:00 +9°C° 0 mm 5 m/s 712 mmHg 66%
17:00 +10°C° 0 mm 4 m/s 712 mmHg 70%
18:00 +9°C° 0 mm 3 m/s 711 mmHg 74%
19:00 +8°C° 0 mm 3 m/s 712 mmHg 76%
20:00 +8°C° 0 mm 3 m/s 712 mmHg 78%
21:00 +8°C° 0 mm 3 m/s 712 mmHg 80%
22:00 +8°C° 0 mm 3 m/s 712 mmHg 81%
23:00 +7°C° 0 mm 4 m/s 712 mmHg 81%

21 Janeiro, Quinta-feira

Tempo Temperatura Precipitação Vento Pressão Humidade
00:00 +7°C° 0 mm 5 m/s 712 mmHg 82%
01:00 +7°C° 0 mm 5 m/s 712 mmHg 81%
02:00 +7°C° 0 mm 5 m/s 712 mmHg 80%
03:00 +7°C° 0 mm 5 m/s 712 mmHg 79%
04:00 +7°C° 0 mm 5 m/s 712 mmHg 80%
05:00 +6°C° 0 mm 5 m/s 712 mmHg 81%
06:00 +6°C° 0 mm 5 m/s 713 mmHg 81%
07:00 +7°C° 0 mm 5 m/s 713 mmHg 78%
08:00 +8°C° 0 mm 6 m/s 713 mmHg 75%
09:00 +9°C° 0 mm 6 m/s 714 mmHg 72%
10:00 +10°C° 0 mm 7 m/s 714 mmHg 68%
11:00 +11°C° 0 mm 8 m/s 714 mmHg 64%
12:00 +12°C° 0 mm 9 m/s 714 mmHg 60%
13:00 +12°C° 0 mm 9 m/s 713 mmHg 60%
14:00 +12°C° 0 mm 9 m/s 713 mmHg 60%
15:00 +12°C° 0 mm 9 m/s 712 mmHg 60%
16:00 +11°C° 0 mm 9 m/s 712 mmHg 64%
17:00 +11°C° 0 mm 10 m/s 711 mmHg 69%
18:00 +9°C° 0 mm 10 m/s 711 mmHg 73%
19:00 +9°C° 0 mm 10 m/s 711 mmHg 72%
20:00 +9°C° 0 mm 10 m/s 711 mmHg 71%
21:00 +9°C° 0 mm 10 m/s 712 mmHg 71%
22:00 +10°C° 0 mm 9 m/s 712 mmHg 69%
23:00 +8°C° 0 mm 9 m/s 712 mmHg 67%

22 Janeiro, Sexta-feira

Tempo Temperatura Precipitação Vento Pressão Humidade
00:00 +7°C° 0 mm 9 m/s 712 mmHg 65%
01:00 +7°C° 0 mm 8 m/s 712 mmHg 66%
02:00 +7°C° 0 mm 6 m/s 712 mmHg 66%
03:00 +6°C° 0 mm 5 m/s 712 mmHg 67%
04:00 +6°C° 0 mm 5 m/s 712 mmHg 68%
05:00 +5°C° 0 mm 4 m/s 712 mmHg 70%
06:00 +5°C° 0 mm 3 m/s 712 mmHg 72%
07:00 +6°C° 0 mm 4 m/s 712 mmHg 70%
08:00 +7°C° 0 mm 6 m/s 712 mmHg 68%
09:00 +6°C° 0 mm 7 m/s 712 mmHg 66%
10:00 +7°C° 0.4 mm 8 m/s 712 mmHg 67%
11:00 +8°C° 0.4 mm 9 m/s 711 mmHg 67%
12:00 +9°C° 0.4 mm 10 m/s 711 mmHg 68%
13:00 +9°C° 0.8 mm 10 m/s 711 mmHg 63%
14:00 +9°C° 0.8 mm 10 m/s 710 mmHg 59%
15:00 +9°C° 0.8 mm 10 m/s 710 mmHg 54%
16:00 +8°C° 0 mm 9 m/s 711 mmHg 57%
17:00 +7°C° 0 mm 8 m/s 711 mmHg 61%
18:00 +6°C° 0 mm 8 m/s 712 mmHg 64%
19:00 +5°C° 0 mm 7 m/s 713 mmHg 64%
20:00 +5°C° 0 mm 7 m/s 713 mmHg 65%
21:00 +4°C° 0 mm 6 m/s 714 mmHg 65%
22:00 +5°C° 0 mm 5 m/s 714 mmHg 67%
23:00 +5°C° 0 mm 5 m/s 715 mmHg 69%

23 Janeiro, Sábado

Tempo Temperatura Precipitação Vento Pressão Humidade
00:00 +4°C° 0 mm 4 m/s 715 mmHg 70%
01:00 +3°C° 0 mm 4 m/s 715 mmHg 71%
02:00 +3°C° 0 mm 4 m/s 715 mmHg 72%
03:00 +2°C° 0 mm 3 m/s 716 mmHg 73%
04:00 +1°C° 0 mm 4 m/s 716 mmHg 73%
05:00 +1°C° 0 mm 4 m/s 716 mmHg 73%
06:00 +1°C° 0 mm 4 m/s 716 mmHg 73%
07:00 +3°C° 0 mm 4 m/s 716 mmHg 69%
08:00 +3°C° 0 mm 5 m/s 716 mmHg 65%
09:00 +5°C° 0 mm 5 m/s 717 mmHg 61%
10:00 +7°C° 0 mm 6 m/s 717 mmHg 56%
11:00 +9°C° 0 mm 6 m/s 717 mmHg 52%
12:00 +10°C° 0 mm 7 m/s 717 mmHg 47%
13:00 +10°C° 0 mm 8 m/s 716 mmHg 49%
14:00 +11°C° 0 mm 8 m/s 715 mmHg 51%
15:00 +11°C° 0 mm 9 m/s 715 mmHg 54%
16:00 +10°C° 0 mm 9 m/s 714 mmHg 59%
17:00 +9°C° 0 mm 8 m/s 714 mmHg 64%
18:00 +7°C° 0 mm 8 m/s 714 mmHg 69%
19:00 +7°C° 0 mm 8 m/s 714 mmHg 69%
20:00 +7°C° 0 mm 9 m/s 714 mmHg 69%
21:00 +8°C° 0 mm 10 m/s 714 mmHg 69%
22:00 +8°C° 0 mm 9 m/s 714 mmHg 71%
23:00 +8°C° 0 mm 9 m/s 714 mmHg 73%
Mostrar mais

Necessitamos do seu Consentimento

A Meteoprog e os seus Fornecedores de Serviços podem armazenar e aceder a dados pessoais como cookies, identificadores do dispositivo ou outras tecnologias semelhantes existentes no seu dispositivo e processar estes dados para personalizar conteúdos e anúncios, assim como funcionalidades nas redes sociais e análise de tráfego.

  • Armazenar e/ou aceder a informações no seu dispositivo

    Os cookies, identificadores do dispositivo ou outras informações podem ser armazenados ou acedidos no seu dispositivo, para os fins acima indicados.

  • Anúncios e conteúdos personalizados, medição de anúncios e conteúdos, dados sobre o público-alvo e desenvolvimento de produtos

    Os anúncios e os conteúdos podem ser personalizados com base num perfil. Podem ser adicionados dados adicionais para uma maior personalização dos anúncios e dos conteúdos. A eficácia dos anúncios e dos conteúdos pode ser medida. Podem ser obtidas informações sobre o público que visualizou os anúncios e os conteúdos. Estes dados podem ser usados para desenvolver ou melhorar sistemas, softwares ou a experiência do utilizador.

Ao clicar em "Eu concordo”, permitirá o uso de cookies, identificadores do dispositivo e web beacons mencionados ou outras tecnologias semelhantes. As configurações do navegador do seu dispositivo podem ser alteradas.

Para certos fins, podem ser invocados interesses legítimos ao invés de consentimento. Pode ler mais informação sobre este assunto na nossa Política de Privacidade e Cookies.